FDX5784 KEWR-KIAD

Flight info

Callsign FDX5784
Flight time 1h 25m
Altitude 8000
Route DCT SBJ T430 ETX V39 HYPER DCT FDK DCT AML DCT
Aircraft C208/L-SDFGR/C

Departure

Time 2026-05-04 03:15
Airport Newark Liberty International Airport (KEWR)

Arrival

Time 2026-05-04 04:40
Airport Washington Dulles International Airport (KIAD)
Time Latitude Longitude Altitude Speed Heading
2026-05-04 02:58 40.67479 -74.18287 21 ft 0 kts 340°
2026-05-04 03:04 40.67491 -74.18284 22 ft 7 kts 46°
2026-05-04 03:05 40.67499 -74.18266 21 ft 0 kts 62°
2026-05-04 03:05 40.67530 -74.18229 21 ft 11 kts 27°
2026-05-04 03:06 40.67616 -74.18174 21 ft 15 kts 25°
2026-05-04 03:06 40.67715 -74.18115 21 ft 16 kts 26°
2026-05-04 03:06 40.67813 -74.18054 22 ft 15 kts 24°
2026-05-04 03:06 40.67908 -74.17993 21 ft 15 kts 27°
2026-05-04 03:07 40.68001 -74.17933 21 ft 15 kts 25°
2026-05-04 03:07 40.68094 -74.17873 21 ft 15 kts 25°
2026-05-04 03:07 40.68186 -74.17816 21 ft 14 kts 26°
2026-05-04 03:07 40.68275 -74.17757 21 ft 14 kts 26°
2026-05-04 03:08 40.68365 -74.17700 21 ft 14 kts 24°
2026-05-04 03:08 40.68453 -74.17645 21 ft 14 kts 25°
2026-05-04 03:08 40.68540 -74.17590 21 ft 14 kts 26°
2026-05-04 03:08 40.68628 -74.17534 21 ft 14 kts 26°
2026-05-04 03:09 40.68715 -74.17479 21 ft 14 kts 25°
2026-05-04 03:09 40.68803 -74.17423 21 ft 14 kts 26°
2026-05-04 03:09 40.68893 -74.17367 21 ft 14 kts 24°
2026-05-04 03:09 40.68981 -74.17310 21 ft 14 kts 29°
2026-05-04 03:10 40.69070 -74.17251 20 ft 14 kts 25°
2026-05-04 03:10 40.69161 -74.17194 21 ft 14 kts 25°
2026-05-04 03:10 40.69252 -74.17138 22 ft 14 kts 26°
2026-05-04 03:10 40.69342 -74.17078 21 ft 15 kts 26°
2026-05-04 03:11 40.69433 -74.17021 21 ft 14 kts 26°
2026-05-04 03:11 40.69524 -74.16963 21 ft 14 kts 26°
2026-05-04 03:11 40.69614 -74.16905 21 ft 14 kts 26°
2026-05-04 03:11 40.69704 -74.16849 21 ft 14 kts 25°
2026-05-04 03:12 40.69779 -74.16767 21 ft 15 kts 66°
2026-05-04 03:12 40.69800 -74.16705 20 ft 1 kts 65°
2026-05-04 03:12 40.69808 -74.16681 20 ft 4 kts 65°
2026-05-04 03:12 40.69836 -74.16644 20 ft 7 kts 25°
2026-05-04 03:13 40.69885 -74.16614 20 ft 9 kts 26°
2026-05-04 03:13 40.69943 -74.16577 20 ft 10 kts 26°
2026-05-04 03:13 40.70009 -74.16535 20 ft 11 kts 25°
2026-05-04 03:13 40.70065 -74.16488 19 ft 8 kts 68°
2026-05-04 03:14 40.70065 -74.16468 19 ft 0 kts 100°
2026-05-04 03:14 40.70061 -74.16434 19 ft 10 kts 97°
2026-05-04 03:14 40.70018 -74.16371 18 ft 10 kts 199°
2026-05-04 03:14 40.69896 -74.16447 18 ft 39 kts 206°
2026-05-04 03:15 40.69502 -74.16691 52 ft 80 kts 205°
2026-05-04 03:15 40.68959 -74.17007 301 ft 87 kts 206°
2026-05-04 03:15 40.68392 -74.17343 579 ft 92 kts 207°
2026-05-04 03:15 40.67788 -74.17694 840 ft 98 kts 206°
2026-05-04 03:16 40.67129 -74.17977 1122 ft 103 kts 198°
2026-05-04 03:16 40.66377 -74.18022 1306 ft 117 kts 187°
2026-05-04 03:16 40.65490 -74.18109 1226 ft 135 kts 204°
2026-05-04 03:16 40.64645 -74.18658 1307 ft 133 kts 217°
2026-05-04 03:17 40.63884 -74.19311 1494 ft 129 kts 218°
2026-05-04 03:17 40.63140 -74.19928 1678 ft 127 kts 218°
2026-05-04 03:17 40.62376 -74.20539 1862 ft 127 kts 218°
2026-05-04 03:17 40.61624 -74.21119 2040 ft 127 kts 218°
2026-05-04 03:18 40.60988 -74.21853 2211 ft 118 kts 245°
2026-05-04 03:18 40.60809 -74.22876 2391 ft 115 kts 267°
2026-05-04 03:18 40.60785 -74.23929 2571 ft 115 kts 269°
2026-05-04 03:18 40.60759 -74.24980 2752 ft 115 kts 269°
2026-05-04 03:19 40.60724 -74.26031 2935 ft 115 kts 268°
2026-05-04 03:19 40.60681 -74.27081 3117 ft 115 kts 268°
2026-05-04 03:19 40.60634 -74.28126 3289 ft 114 kts 268°
2026-05-04 03:19 40.60585 -74.29161 3458 ft 113 kts 268°
2026-05-04 03:20 40.60534 -74.30191 3630 ft 112 kts 269°
2026-05-04 03:20 40.60482 -74.31214 3805 ft 112 kts 269°
2026-05-04 03:20 40.60430 -74.32236 3989 ft 112 kts 269°
2026-05-04 03:20 40.60379 -74.33268 4178 ft 113 kts 270°
2026-05-04 03:21 40.60326 -74.34301 4367 ft 113 kts 270°
2026-05-04 03:21 40.60275 -74.35337 4549 ft 114 kts 270°
2026-05-04 03:21 40.60223 -74.36375 4724 ft 114 kts 270°
2026-05-04 03:21 40.60171 -74.37412 4897 ft 114 kts 270°
2026-05-04 03:22 40.60118 -74.38436 5071 ft 114 kts 270°
2026-05-04 03:22 40.60066 -74.39476 5255 ft 114 kts 270°
2026-05-04 03:22 40.60012 -74.40524 5440 ft 115 kts 270°
2026-05-04 03:22 40.59958 -74.41573 5627 ft 114 kts 270°
2026-05-04 03:23 40.59904 -74.42611 5834 ft 113 kts 270°
2026-05-04 03:23 40.59852 -74.43630 6037 ft 113 kts 270°
2026-05-04 03:23 40.59799 -74.44669 6249 ft 112 kts 270°
2026-05-04 03:23 40.59747 -74.45689 6454 ft 112 kts 271°
2026-05-04 03:24 40.59694 -74.46722 6648 ft 114 kts 271°
2026-05-04 03:24 40.59642 -74.47777 6850 ft 116 kts 271°
2026-05-04 03:24 40.59587 -74.48845 7050 ft 118 kts 271°
2026-05-04 03:24 40.59532 -74.49920 7240 ft 118 kts 271°
2026-05-04 03:25 40.59471 -74.50993 7437 ft 118 kts 271°
2026-05-04 03:25 40.59417 -74.52073 7654 ft 119 kts 272°
2026-05-04 03:25 40.59364 -74.53161 7867 ft 120 kts 272°
2026-05-04 03:25 40.59309 -74.54279 7921 ft 131 kts 272°
2026-05-04 03:26 40.59253 -74.55523 7904 ft 140 kts 271°
2026-05-04 03:26 40.59191 -74.56829 7892 ft 145 kts 271°
2026-05-04 03:26 40.59118 -74.58168 7884 ft 148 kts 271°
2026-05-04 03:26 40.59043 -74.59523 7882 ft 149 kts 271°
2026-05-04 03:27 40.58968 -74.60888 7880 ft 150 kts 271°
2026-05-04 03:27 40.58894 -74.62255 7878 ft 150 kts 271°
2026-05-04 03:27 40.58820 -74.63623 7876 ft 150 kts 271°
2026-05-04 03:27 40.58748 -74.64987 7876 ft 149 kts 271°
2026-05-04 03:28 40.58674 -74.66352 7879 ft 150 kts 271°
2026-05-04 03:28 40.58601 -74.67717 7882 ft 150 kts 271°
2026-05-04 03:28 40.58529 -74.69084 7890 ft 149 kts 271°
2026-05-04 03:28 40.58455 -74.70444 7913 ft 149 kts 271°
2026-05-04 03:29 40.58383 -74.71796 7930 ft 148 kts 271°
2026-05-04 03:29 40.58311 -74.73145 7960 ft 148 kts 271°
2026-05-04 03:29 40.58239 -74.74492 7982 ft 147 kts 271°
2026-05-04 03:29 40.58144 -74.75839 7996 ft 149 kts 269°
2026-05-04 03:30 40.58029 -74.77196 7996 ft 149 kts 269°
2026-05-04 03:30 40.57913 -74.78557 7999 ft 150 kts 269°
2026-05-04 03:30 40.57798 -74.79919 7999 ft 150 kts 269°
2026-05-04 03:30 40.57685 -74.81284 8002 ft 150 kts 269°
2026-05-04 03:31 40.57568 -74.82636 8002 ft 151 kts 268°
2026-05-04 03:31 40.57448 -74.84006 8002 ft 151 kts 268°
2026-05-04 03:31 40.57327 -74.85381 8006 ft 152 kts 268°
2026-05-04 03:31 40.57209 -74.86760 8002 ft 152 kts 269°
2026-05-04 03:32 40.57094 -74.88138 7997 ft 151 kts 269°
2026-05-04 03:32 40.56979 -74.89511 7999 ft 151 kts 269°
2026-05-04 03:32 40.56865 -74.90882 7999 ft 151 kts 269°
2026-05-04 03:32 40.56752 -74.92253 7998 ft 151 kts 269°
2026-05-04 03:33 40.56641 -74.93631 8001 ft 152 kts 269°
2026-05-04 03:33 40.56528 -74.95011 8001 ft 152 kts 269°
2026-05-04 03:33 40.56415 -74.96394 8003 ft 152 kts 269°
2026-05-04 03:33 40.56302 -74.97780 7998 ft 152 kts 269°
2026-05-04 03:34 40.56188 -74.99164 8000 ft 152 kts 268°
2026-05-04 03:34 40.56072 -75.00546 8010 ft 152 kts 268°
2026-05-04 03:34 40.55957 -75.01928 8008 ft 152 kts 268°
2026-05-04 03:34 40.55842 -75.03306 8011 ft 152 kts 268°
2026-05-04 03:35 40.55728 -75.04686 8012 ft 152 kts 268°
2026-05-04 03:35 40.55613 -75.06069 8017 ft 152 kts 268°
2026-05-04 03:35 40.55499 -75.07455 8011 ft 152 kts 268°
2026-05-04 03:35 40.55384 -75.08839 8010 ft 152 kts 268°
2026-05-04 03:36 40.55269 -75.10218 8012 ft 152 kts 268°
2026-05-04 03:36 40.55155 -75.11597 8018 ft 152 kts 268°
2026-05-04 03:36 40.55040 -75.12977 8021 ft 152 kts 268°
2026-05-04 03:36 40.54924 -75.14358 8019 ft 152 kts 268°
2026-05-04 03:37 40.54807 -75.15737 8022 ft 152 kts 268°
2026-05-04 03:37 40.54693 -75.17101 8027 ft 152 kts 268°
2026-05-04 03:37 40.54598 -75.18483 8027 ft 152 kts 272°
2026-05-04 03:37 40.54660 -75.19857 8018 ft 150 kts 278°
2026-05-04 03:38 40.54763 -75.21220 8023 ft 150 kts 278°
2026-05-04 03:38 40.54861 -75.22584 8023 ft 150 kts 278°
2026-05-04 03:38 40.54956 -75.23951 8028 ft 150 kts 278°
2026-05-04 03:38 40.55052 -75.25322 8030 ft 151 kts 278°
2026-05-04 03:39 40.55150 -75.26696 8028 ft 151 kts 278°
2026-05-04 03:39 40.55248 -75.28074 8025 ft 151 kts 278°
2026-05-04 03:39 40.55345 -75.29450 8024 ft 151 kts 278°
2026-05-04 03:39 40.55441 -75.30824 8022 ft 150 kts 278°
2026-05-04 03:40 40.55538 -75.32171 8017 ft 150 kts 278°
2026-05-04 03:40 40.55634 -75.33530 8022 ft 149 kts 277°
2026-05-04 03:40 40.55727 -75.34891 8029 ft 150 kts 278°
2026-05-04 03:40 40.55821 -75.36256 8033 ft 150 kts 278°
2026-05-04 03:41 40.55915 -75.37626 8030 ft 151 kts 278°
2026-05-04 03:41 40.56011 -75.38999 8028 ft 151 kts 278°
2026-05-04 03:41 40.56107 -75.40367 8029 ft 151 kts 278°
2026-05-04 03:41 40.56201 -75.41741 8028 ft 151 kts 278°
2026-05-04 03:42 40.56295 -75.43111 8017 ft 150 kts 277°
2026-05-04 03:42 40.56382 -75.44478 8023 ft 150 kts 277°
2026-05-04 03:42 40.56475 -75.45844 8035 ft 150 kts 277°
2026-05-04 03:42 40.56575 -75.47221 8036 ft 152 kts 277°
2026-05-04 03:43 40.56674 -75.48604 8035 ft 152 kts 277°
2026-05-04 03:43 40.56770 -75.49990 8030 ft 152 kts 277°
2026-05-04 03:43 40.56864 -75.51378 8027 ft 152 kts 277°
2026-05-04 03:43 40.56959 -75.52762 8027 ft 152 kts 277°
2026-05-04 03:44 40.57052 -75.54147 8028 ft 152 kts 277°
2026-05-04 03:44 40.57146 -75.55532 8026 ft 152 kts 277°
2026-05-04 03:44 40.57240 -75.56913 8025 ft 152 kts 277°
2026-05-04 03:44 40.57334 -75.58294 8026 ft 152 kts 277°
2026-05-04 03:45 40.57428 -75.59676 8025 ft 152 kts 277°
2026-05-04 03:45 40.57521 -75.61059 8027 ft 152 kts 277°
2026-05-04 03:45 40.57614 -75.62440 8027 ft 152 kts 277°
2026-05-04 03:45 40.57706 -75.63803 8027 ft 151 kts 277°
2026-05-04 03:46 40.57800 -75.65201 8027 ft 151 kts 277°
2026-05-04 03:46 40.57891 -75.66561 8026 ft 151 kts 277°
2026-05-04 03:46 40.57910 -75.67946 8024 ft 153 kts 264°
2026-05-04 03:46 40.57452 -75.69232 8026 ft 160 kts 238°
2026-05-04 03:47 40.56704 -75.70338 8027 ft 163 kts 232°
2026-05-04 03:47 40.55896 -75.71389 8030 ft 164 kts 230°
2026-05-04 03:47 40.55075 -75.72423 8028 ft 164 kts 230°
2026-05-04 03:47 40.54252 -75.73462 8028 ft 164 kts 230°
2026-05-04 03:48 40.53435 -75.74507 8026 ft 164 kts 231°
2026-05-04 03:48 40.52623 -75.75558 8024 ft 163 kts 231°
2026-05-04 03:48 40.51818 -75.76609 8024 ft 163 kts 231°
2026-05-04 03:48 40.51015 -75.77666 8024 ft 163 kts 231°
2026-05-04 03:49 40.50217 -75.78723 8029 ft 163 kts 231°
2026-05-04 03:49 40.49423 -75.79783 8030 ft 163 kts 231°
2026-05-04 03:49 40.48627 -75.80837 8030 ft 162 kts 231°
2026-05-04 03:49 40.47830 -75.81891 8032 ft 163 kts 231°
2026-05-04 03:50 40.47034 -75.82944 8019 ft 162 kts 230°
2026-05-04 03:50 40.46249 -75.83981 8027 ft 162 kts 230°
2026-05-04 03:50 40.45452 -75.85034 8030 ft 163 kts 230°
2026-05-04 03:50 40.44654 -75.86088 8033 ft 163 kts 230°
2026-05-04 03:51 40.43856 -75.87144 8040 ft 163 kts 230°
2026-05-04 03:51 40.43055 -75.88202 8039 ft 163 kts 230°
2026-05-04 03:51 40.42253 -75.89259 8035 ft 163 kts 230°
2026-05-04 03:51 40.41454 -75.90317 8033 ft 163 kts 231°
2026-05-04 03:52 40.40655 -75.91377 8039 ft 163 kts 230°
2026-05-04 03:52 40.39853 -75.92433 8038 ft 164 kts 230°
2026-05-04 03:52 40.39051 -75.93489 8038 ft 163 kts 230°
2026-05-04 03:52 40.38248 -75.94546 8019 ft 163 kts 230°
2026-05-04 03:53 40.37446 -75.95604 8015 ft 163 kts 230°
2026-05-04 03:53 40.36646 -75.96656 8016 ft 163 kts 230°
2026-05-04 03:53 40.35847 -75.97710 8016 ft 163 kts 230°
2026-05-04 03:53 40.35059 -75.98748 8017 ft 162 kts 230°
2026-05-04 03:54 40.34262 -75.99796 8019 ft 162 kts 230°
2026-05-04 03:54 40.33464 -76.00846 8019 ft 163 kts 230°
2026-05-04 03:54 40.32665 -76.01898 8020 ft 163 kts 230°
2026-05-04 03:54 40.31865 -76.02951 8018 ft 163 kts 230°
2026-05-04 03:55 40.31065 -76.04001 8021 ft 163 kts 230°
2026-05-04 03:55 40.30264 -76.05054 8020 ft 163 kts 230°
2026-05-04 03:55 40.29463 -76.06107 8021 ft 163 kts 230°
2026-05-04 03:55 40.28930 -76.06805 8020 ft 163 kts 230°
2026-05-04 03:56 40.28128 -76.07858 8016 ft 163 kts 230°
2026-05-04 03:56 40.27328 -76.08909 8021 ft 163 kts 230°
2026-05-04 03:56 40.26527 -76.09959 8021 ft 163 kts 230°
2026-05-04 03:56 40.25727 -76.11009 8021 ft 162 kts 230°
2026-05-04 03:57 40.24929 -76.12056 8025 ft 163 kts 230°
2026-05-04 03:57 40.24131 -76.13103 8036 ft 162 kts 230°
2026-05-04 03:57 40.23333 -76.14149 8038 ft 162 kts 230°
2026-05-04 03:57 40.22537 -76.15193 8038 ft 162 kts 229°
2026-05-04 03:58 40.20947 -76.17274 8037 ft 161 kts 229°
2026-05-04 03:58 40.20155 -76.18312 8038 ft 161 kts 229°
2026-05-04 03:58 40.19361 -76.19350 8037 ft 161 kts 229°
2026-05-04 03:59 40.18569 -76.20386 8038 ft 161 kts 229°
2026-05-04 03:59 40.17776 -76.21423 8039 ft 161 kts 229°
2026-05-04 03:59 40.16982 -76.22462 8036 ft 161 kts 229°
2026-05-04 03:59 40.16189 -76.23497 8035 ft 161 kts 229°
2026-05-04 04:00 40.15396 -76.24532 8033 ft 161 kts 229°
2026-05-04 04:00 40.14605 -76.25565 8036 ft 161 kts 229°
2026-05-04 04:00 40.13823 -76.26586 8037 ft 161 kts 229°
2026-05-04 04:00 40.13020 -76.27634 8036 ft 161 kts 229°
2026-05-04 04:01 40.12229 -76.28667 8038 ft 161 kts 229°
2026-05-04 04:01 40.11510 -76.29775 8045 ft 159 kts 239°
2026-05-04 04:01 40.10940 -76.30981 8047 ft 158 kts 243°
2026-05-04 04:01 40.10390 -76.32223 8048 ft 158 kts 243°
2026-05-04 04:02 40.09843 -76.33470 8046 ft 158 kts 243°
2026-05-04 04:02 40.09293 -76.34712 8037 ft 158 kts 242°
2026-05-04 04:02 40.08736 -76.35950 8041 ft 158 kts 242°
2026-05-04 04:02 40.08177 -76.37182 8044 ft 158 kts 242°
2026-05-04 04:03 40.07614 -76.38411 8046 ft 158 kts 242°
2026-05-04 04:03 40.07049 -76.39640 8051 ft 158 kts 241°
2026-05-04 04:03 40.06482 -76.40871 8050 ft 158 kts 241°
2026-05-04 04:03 40.05913 -76.42103 8049 ft 159 kts 241°
2026-05-04 04:04 40.05342 -76.43337 8048 ft 158 kts 241°
2026-05-04 04:04 40.04772 -76.44569 8046 ft 158 kts 241°
2026-05-04 04:04 40.04205 -76.45798 8046 ft 158 kts 241°
2026-05-04 04:04 40.03637 -76.47026 8049 ft 158 kts 241°
2026-05-04 04:05 40.03068 -76.48254 8050 ft 158 kts 241°
2026-05-04 04:05 40.02498 -76.49485 8052 ft 158 kts 241°
2026-05-04 04:05 40.01929 -76.50715 8054 ft 158 kts 241°
2026-05-04 04:05 40.01367 -76.51927 8053 ft 158 kts 241°
2026-05-04 04:06 40.00792 -76.53167 8052 ft 158 kts 241°
2026-05-04 04:06 40.00233 -76.54375 8052 ft 157 kts 241°
2026-05-04 04:06 39.99666 -76.55597 8053 ft 157 kts 240°
2026-05-04 04:06 39.99099 -76.56818 8055 ft 157 kts 240°
2026-05-04 04:07 39.98531 -76.58040 8053 ft 157 kts 241°
2026-05-04 04:07 39.97965 -76.59261 8053 ft 157 kts 240°
2026-05-04 04:07 39.97397 -76.60482 8051 ft 157 kts 241°
2026-05-04 04:07 39.96831 -76.61700 8052 ft 157 kts 241°
2026-05-04 04:08 39.96265 -76.62918 8052 ft 157 kts 241°
2026-05-04 04:08 39.95700 -76.64134 8055 ft 157 kts 241°
2026-05-04 04:08 39.95134 -76.65349 8057 ft 157 kts 240°
2026-05-04 04:08 39.94567 -76.66568 8058 ft 157 kts 240°
2026-05-04 04:09 39.94001 -76.67785 8056 ft 157 kts 240°
2026-05-04 04:09 39.93433 -76.69004 8053 ft 157 kts 240°
2026-05-04 04:09 39.92867 -76.70219 8056 ft 157 kts 240°
2026-05-04 04:09 39.92299 -76.71436 8054 ft 157 kts 240°
2026-05-04 04:10 39.91732 -76.72652 8057 ft 157 kts 240°
2026-05-04 04:10 39.91163 -76.73871 8056 ft 157 kts 240°
2026-05-04 04:10 39.90595 -76.75089 8057 ft 157 kts 240°
2026-05-04 04:10 39.90026 -76.76307 8056 ft 158 kts 240°
2026-05-04 04:11 39.89456 -76.77526 8055 ft 157 kts 240°
2026-05-04 04:11 39.88888 -76.78742 8054 ft 157 kts 240°
2026-05-04 04:11 39.88318 -76.79960 8055 ft 157 kts 240°
2026-05-04 04:11 39.87749 -76.81175 8054 ft 157 kts 240°
2026-05-04 04:12 39.87182 -76.82390 8054 ft 157 kts 240°
2026-05-04 04:12 39.86613 -76.83606 8057 ft 157 kts 240°
2026-05-04 04:12 39.86044 -76.84821 8055 ft 157 kts 240°
2026-05-04 04:12 39.85482 -76.86022 8055 ft 157 kts 240°
2026-05-04 04:13 39.84913 -76.87236 8058 ft 157 kts 240°
2026-05-04 04:13 39.84344 -76.88450 8064 ft 157 kts 240°
2026-05-04 04:13 39.83773 -76.89668 8063 ft 157 kts 240°
2026-05-04 04:13 39.83202 -76.90886 8064 ft 157 kts 240°
2026-05-04 04:14 39.82633 -76.92101 8062 ft 157 kts 240°
2026-05-04 04:14 39.82061 -76.93316 8065 ft 157 kts 240°
2026-05-04 04:14 39.81490 -76.94530 8069 ft 157 kts 240°
2026-05-04 04:14 39.80918 -76.95748 8067 ft 157 kts 240°
2026-05-04 04:15 39.80347 -76.96962 8065 ft 157 kts 240°
2026-05-04 04:15 39.79777 -76.98177 8066 ft 157 kts 240°
2026-05-04 04:15 39.79206 -76.99390 8067 ft 157 kts 240°
2026-05-04 04:15 39.78634 -77.00605 8066 ft 157 kts 240°
2026-05-04 04:16 39.78063 -77.01818 8067 ft 157 kts 240°
2026-05-04 04:16 39.77491 -77.03033 8066 ft 157 kts 240°
2026-05-04 04:16 39.76920 -77.04246 8065 ft 157 kts 240°
2026-05-04 04:16 39.76347 -77.05461 8066 ft 157 kts 240°
2026-05-04 04:17 39.75774 -77.06674 8065 ft 157 kts 240°
2026-05-04 04:17 39.75202 -77.07888 8065 ft 157 kts 240°
2026-05-04 04:17 39.74632 -77.09095 8064 ft 156 kts 240°
2026-05-04 04:17 39.74073 -77.10279 8065 ft 156 kts 240°
2026-05-04 04:18 39.73500 -77.11493 8066 ft 155 kts 240°
2026-05-04 04:18 39.72943 -77.12675 8067 ft 155 kts 240°
2026-05-04 04:18 39.72376 -77.13873 8066 ft 155 kts 240°
2026-05-04 04:18 39.71811 -77.15069 8067 ft 155 kts 240°
2026-05-04 04:19 39.71246 -77.16264 8067 ft 155 kts 240°
2026-05-04 04:19 39.70679 -77.17462 8067 ft 156 kts 240°
2026-05-04 04:19 39.70113 -77.18659 8068 ft 156 kts 240°
2026-05-04 04:19 39.69546 -77.19856 8077 ft 156 kts 240°
2026-05-04 04:20 39.68978 -77.21056 8067 ft 156 kts 240°
2026-05-04 04:20 39.68402 -77.22246 8068 ft 156 kts 238°
2026-05-04 04:20 39.67679 -77.23300 8072 ft 158 kts 222°
2026-05-04 04:20 39.66697 -77.23970 8073 ft 162 kts 204°
2026-05-04 04:21 39.65608 -77.24376 8070 ft 163 kts 200°
2026-05-04 04:21 39.64521 -77.24774 8068 ft 162 kts 202°
2026-05-04 04:21 39.63456 -77.25241 8075 ft 161 kts 205°
2026-05-04 04:21 39.62413 -77.25755 8074 ft 160 kts 206°
2026-05-04 04:22 39.61379 -77.26296 8076 ft 160 kts 207°
2026-05-04 04:22 39.60349 -77.26849 8079 ft 160 kts 207°
2026-05-04 04:22 39.59323 -77.27409 8097 ft 160 kts 208°
2026-05-04 04:22 39.58299 -77.27972 8098 ft 160 kts 208°
2026-05-04 04:23 39.57276 -77.28537 8098 ft 160 kts 208°
2026-05-04 04:23 39.56255 -77.29101 8100 ft 160 kts 208°
2026-05-04 04:23 39.55231 -77.29665 8088 ft 159 kts 209°
2026-05-04 04:23 39.54213 -77.30219 8097 ft 158 kts 209°
2026-05-04 04:24 39.53206 -77.30774 8097 ft 157 kts 209°
2026-05-04 04:24 39.52203 -77.31328 8101 ft 156 kts 210°
2026-05-04 04:24 39.51207 -77.31880 8095 ft 156 kts 210°
2026-05-04 04:24 39.50225 -77.32424 8097 ft 155 kts 210°
2026-05-04 04:25 39.49232 -77.32973 8099 ft 155 kts 210°
2026-05-04 04:25 39.48241 -77.33521 8101 ft 155 kts 210°
2026-05-04 04:25 39.47248 -77.34069 8102 ft 155 kts 210°
2026-05-04 04:25 39.46253 -77.34618 8105 ft 156 kts 209°
2026-05-04 04:26 39.45241 -77.35176 8103 ft 156 kts 210°
2026-05-04 04:26 39.44262 -77.35733 8101 ft 156 kts 210°
2026-05-04 04:26 39.43269 -77.36295 8100 ft 156 kts 210°
2026-05-04 04:26 39.42274 -77.36854 8103 ft 156 kts 210°
2026-05-04 04:27 39.41263 -77.37380 8103 ft 158 kts 204°
2026-05-04 04:27 39.40178 -77.37685 8099 ft 161 kts 197°
2026-05-04 04:27 39.39068 -77.37897 8101 ft 161 kts 195°
2026-05-04 04:27 39.37956 -77.38098 8105 ft 162 kts 195°
2026-05-04 04:28 39.36843 -77.38302 8087 ft 162 kts 195°
2026-05-04 04:28 39.35729 -77.38509 8090 ft 162 kts 195°
2026-05-04 04:28 39.34616 -77.38721 8090 ft 162 kts 196°
2026-05-04 04:28 39.33507 -77.38947 8085 ft 159 kts 201°
2026-05-04 04:29 39.32582 -77.39611 8087 ft 150 kts 224°
2026-05-04 04:29 39.31789 -77.40485 8089 ft 150 kts 226°
2026-05-04 04:29 39.31008 -77.41378 8095 ft 150 kts 226°
2026-05-04 04:29 39.30211 -77.42280 7968 ft 154 kts 226°
2026-05-04 04:30 39.29419 -77.43166 7792 ft 152 kts 225°
2026-05-04 04:30 39.28622 -77.44049 7613 ft 150 kts 225°
2026-05-04 04:30 39.27821 -77.44904 7428 ft 150 kts 220°
2026-05-04 04:30 39.26844 -77.45440 7256 ft 158 kts 198°
2026-05-04 04:31 39.25732 -77.45517 7083 ft 161 kts 188°
2026-05-04 04:31 39.24632 -77.45506 6907 ft 156 kts 188°
2026-05-04 04:31 39.23552 -77.45498 6740 ft 154 kts 188°
2026-05-04 04:31 39.22497 -77.45501 6569 ft 149 kts 189°
2026-05-04 04:32 39.21468 -77.45508 6388 ft 146 kts 189°
2026-05-04 04:32 39.20455 -77.45521 6208 ft 145 kts 189°
2026-05-04 04:32 39.19444 -77.45536 6027 ft 145 kts 189°
2026-05-04 04:32 39.18434 -77.45551 5839 ft 145 kts 189°
2026-05-04 04:33 39.17420 -77.45568 5664 ft 146 kts 189°
2026-05-04 04:33 39.16406 -77.45585 5482 ft 144 kts 189°
2026-05-04 04:33 39.15429 -77.45597 5294 ft 138 kts 189°
2026-05-04 04:33 39.14484 -77.45612 5107 ft 134 kts 189°
2026-05-04 04:34 39.13557 -77.45627 4929 ft 133 kts 189°
2026-05-04 04:34 39.12630 -77.45643 4751 ft 133 kts 188°
2026-05-04 04:34 39.11703 -77.45656 4565 ft 132 kts 185°
2026-05-04 04:34 39.10806 -77.45672 4385 ft 129 kts 185°
2026-05-04 04:35 39.09918 -77.45690 4184 ft 127 kts 185°
2026-05-04 04:35 39.09071 -77.45704 3940 ft 116 kts 185°
2026-05-04 04:35 39.08293 -77.45719 3713 ft 103 kts 185°
2026-05-04 04:35 39.07604 -77.45707 3522 ft 96 kts 182°
2026-05-04 04:36 39.06936 -77.45680 3316 ft 96 kts 182°
2026-05-04 04:36 39.06257 -77.45620 3083 ft 99 kts 180°
2026-05-04 04:36 39.05573 -77.45579 2895 ft 98 kts 181°
2026-05-04 04:36 39.04887 -77.45548 2698 ft 99 kts 181°
2026-05-04 04:37 39.02947 -77.45650 2031 ft 87 kts 187°
2026-05-04 04:37 39.02350 -77.45741 1748 ft 86 kts 189°
2026-05-04 04:38 39.01742 -77.45867 1362 ft 90 kts 190°
2026-05-04 04:38 39.01130 -77.45936 1076 ft 87 kts 181°
2026-05-04 04:38 39.00528 -77.45923 862 ft 85 kts 177°
2026-05-04 04:38 38.99938 -77.45884 670 ft 85 kts 178°
2026-05-04 04:39 38.99365 -77.45872 549 ft 79 kts 177°
2026-05-04 04:39 38.98829 -77.45861 513 ft 77 kts 181°
2026-05-04 04:39 38.98285 -77.45868 511 ft 79 kts 177°
2026-05-04 04:39 38.97735 -77.45877 503 ft 78 kts 182°
2026-05-04 04:40 38.97195 -77.45911 413 ft 76 kts 180°
2026-05-04 04:40 38.96688 -77.45926 320 ft 67 kts 182°
2026-05-04 04:40 38.96281 -77.45952 298 ft 50 kts 180°
2026-05-04 04:40 38.96045 -77.45942 299 ft 22 kts 173°
2026-05-04 04:41 38.95960 -77.45879 301 ft 12 kts 50°
2026-05-04 04:41 38.96059 -77.45825 300 ft 14 kts 35°
2026-05-04 04:41 38.96117 -77.45746 299 ft 11 kts 99°
2026-05-04 04:41 38.96070 -77.45705 300 ft 8 kts 175°
2026-05-04 04:42 38.96005 -77.45706 299 ft 9 kts 180°
2026-05-04 04:42 38.95949 -77.45706 300 ft 7 kts 179°
2026-05-04 04:42 38.95886 -77.45705 300 ft 10 kts 180°
2026-05-04 04:42 38.95824 -77.45705 299 ft 10 kts 180°
2026-05-04 04:43 38.95770 -77.45705 299 ft 13 kts 177°
2026-05-04 04:43 38.95722 -77.45636 299 ft 11 kts 92°
2026-05-04 04:43 38.95716 -77.45534 299 ft 11 kts 110°
2026-05-04 04:43 38.95670 -77.45510 299 ft 6 kts 182°
2026-05-04 04:44 38.95633 -77.45470 301 ft 5 kts 90°
2026-05-04 04:44 38.95633 -77.45445 299 ft 3 kts 89°
2026-05-04 04:44 38.95633 -77.45435 299 ft 0 kts 90°